User: anonymous   Login
Location: Fremont
(37.5480°N, 121.9880°W)
Time: 00:29:46
(UTC-07:00)
Language:

Cosmos 1766 - Orbit

View from above orbital plane
View from above orbital plane
View from above satellite
View from above satellite

Ground track
Ground track

The orbit data is extracted from the following two-line orbital elements,

1 16881U 86055A   17262.65749359  .00000109  00000-0  47231-5 0  9996
2 16881  82.5041 291.2736 0018001 130.7907 229.4888 15.10217591695691
Epoch (UTC): 19 September 2017 15:46:47
Eccentricity: 0.0018001
inclination: 82.5041°
perigee height: 523 km
apogee height: 548 km
right ascension of ascending node: 291.2736°
argument of perigee: 130.7907°
revolutions per day: 15.10217591
mean anomaly at epoch: 229.4888°
orbit number at epoch: 69569

The dashed part of the orbit path shows where the satellite is in the earth's shadow,  

DLR